Location: Kielce
(50.8833°N, 20.6167°E)
Time: 21:24:24
(UTC+02:00)

SR - Pass Details

Date: 23 April 2021
Orbit: 573 x 882 km, 66.7° (Epoch: 09 May)

Event Time Altitude Azimuth Distance (km) Brightness Sun altitude
Rises 11:15:00 0° 293° (WNW) 3,466 ? 48.4°
Reaches altitude 10° 11:18:25 10° 313° (NW) 2,545 ? 48.7°
Maximum altitude 11:22:16 17° 354° (N) 2,066 ? 49.0°
Drops below altitude 10° 11:26:07 10° 34° (NE) 2,534 ? 49.2°
Sets 11:29:31 0° 54° (NE) 3,444 ? 49.5°
